Location: Newark
(21.1200°N, 73.4000°E)
Time: 02:09:47
(UTC+00:00)

Explorer 11/Cluster Stage 4 - Pass Details

Date: 25 January 2020
Orbit: 467 x 1259 km, 28.8° (Epoch: 19 February)

Event Time Altitude Azimuth Distance (km) Brightness Sun altitude
Rises 10:13:06 0° 274° (W) 4,198 10.9 31.4°
Reaches altitude 10° 10:16:14 10° 280° (W) 3,212 10.4 30.8°
Maximum altitude 10:24:05 49° 353° (N) 1,461 8.1 29.4°
Drops below altitude 10° 10:30:59 10° 67° (ENE) 2,836 9.0 28.1°
Sets 10:33:35 0° 73° (ENE) 3,675 9.5 27.6°
